[[{"header":{"parameterUnit":"m.s-1","parameterCategory":1,"la1":30.2991,"la2":30.254,"lo1":-89.0895,"lo2":-89.0444,"dy":0.0017,"dx":0.0017,"nx":28,"ny":28,"refTime":"2024-08-13T21:00:00:Z","depth":0,"parameterNumber":2,"parameterNumberName":"U-component_of_WINDS"},"data":[0,0,0,0,0,0,0,0,0,0,0,0,0,0,0,0,0,0,0,0,0,0,0,0,0,0,0,0,0,0,0,0,0,0,0,0,0,0,0,0,0,0,0,0,0,0,0,0,0,0,0,0,0,0,0,0,0,0,3.1765,3.1766,0,3.1863,3.1864,3.1865,3.1826,3.1824,3.1822,3.1819,3.1919,3.1924,3.1928,0,0,0,0,0,0,0,0,0,0,0,0,0,3.1544,3.1548,3.1765,3.1766,3.1768,3.1863,3.1864,3.1866,3.1827,3.1824,3.1821,3.1818,3.1917,3.1923,3.1929,0,0,0,0,0,0,0,0,0,0,0,0,0,3.1641,3.155,3.1765,3.176,3.176,3.1863,3.1864,3.1866,3.1827,3.1824,3.182,3.1817,3.1916,3.1922,3.193,3.2043,0,0,3.1952,3.1955,0,0,0,0,0,0,0,0,3.1636,3.1649,3.1759,3.176,3.1761,3.1829,3.1823,3.1925,3.1828,3.1802,3.1819,3.1815,3.1892,3.1901,3.1927,3.2047,3.2052,3.1952,3.1957,3.196,3.1962,0,0,0,0,0,0,0,3.1629,3.1645,3.1804,3.1761,3.1762,3.1752,3.1762,3.1842,3.1865,3.1804,3.1801,3.1813,3.1892,3.192,3.1929,3.2053,3.1952,3.1958,3.1963,3.1966,3.2272,3.2276,0,0,0,0,0,0,3.1622,3.1639,3.1801,3.1807,3.1689,3.1759,3.177,3.1811,3.1864,3.1869,3.1816,3.1811,3.1909,3.192,3.1932,3.2068,3.196,3.1966,3.197,3.2268,3.2273,3.2277,0,0,0,0,0,0,3.1617,3.1637,3.1797,3.1722,3.1742,3.1767,3.1812,3.1814,3.1842,3.1873,3.1877,3.1841,3.1907,3.1922,3.2016,3.2071,3.1969,3.1976,3.2264,3.227,3.2275,3.2341,0,0,0,0,0,0,3.1611,3.1635,3.1679,3.1724,3.1746,3.1879,3.1816,3.1819,3.1855,3.1849,3.1897,3.1902,3.1905,3.2005,3.2023,3.2079,3.1982,3.2259,3.2266,3.2273,3.2334,3.2348,3.236,0,0,0,0,0,3.1603,3.1693,3.1681,3.1701,3.1801,3.1882,3.1895,3.1897,3.186,3.1903,3.1923,3.19,3.2062,3.2015,3.2035,3.2094,3.2255,3.2264,3.2273,3.2328,3.2345,3.236,0,0,0,0,0,0,3.1654,3.1699,3.1686,3.1793,3.1834,3.1876,3.1931,3.1916,3.1968,3.1961,3.1961,3.1972,3.2069,3.2091,3.2038,3.2206,3.2153,3.2166,3.2188,3.2205,3.2218,3.2211,3.1988,0,0,0,0,0,3.1677,3.174,3.1776,3.1867,3.1888,3.1906,3.1942,3.194,3.1982,3.2,3.2026,3.2068,3.2128,3.2168,3.2225,3.2337,3.2347,3.2387,3.2401,3.2411,3.2423,3.2483,3.2502,3.2305,3.2305,3.2305,0,0,3.1726,3.1759,3.1798,3.1878,3.1909,3.1974,3.1921,3.1991,3.2039,3.201,3.21,3.2122,3.2168,3.2272,3.2319,3.2293,3.2479,3.2422,3.2431,3.2436,3.2494,3.2513,3.2529,3.2311,3.231,3.2309,0,0,3.1849,3.188,3.1959,3.1992,3.2041,3.2052,3.2071,3.2116,3.2129,3.2219,3.2199,3.2256,3.2359,3.2394,3.2425,3.2561,3.2542,3.258,3.2649,3.2709,3.2724,3.2738,3.2786,3.2804,3.2591,3.2591,3.2591,0,3.1904,3.2001,3.2002,3.2074,3.211,3.2087,3.2167,3.2199,3.2264,3.2289,3.2259,3.2389,3.2419,3.253,3.2564,3.259,3.2611,3.2574,3.2722,3.2736,3.2748,3.2795,3.2813,3.2595,3.2595,3.2594,3.2594,0,3.2066,3.2133,3.2191,3.2255,3.2297,3.2373,3.2385,3.2428,3.2423,3.2437,3.253,3.2565,3.2629,3.2656,3.2651,3.2767,3.2749,3.2721,3.2667,3.2771,3.2815,3.2833,3.2601,3.26,3.2599,3.2598,0,0,3.2222,3.2286,3.2307,3.2336,3.2388,3.244,3.2515,3.2578,3.2615,3.266,3.2723,3.2812,3.2786,3.2822,3.2821,3.2873,3.2979,3.2838,3.2839,3.2863,3.3108,3.3129,3.3149,3.2967,3.297,3.2973,3.3104,0,3.2349,3.248,3.2484,3.2604,3.2667,3.2646,3.2711,3.2751,3.2766,3.2822,3.2839,3.2902,3.2863,3.2884,3.2935,3.2955,3.3028,3.2946,3.3025,3.3028,3.3014,3.3172,3.3194,3.3316,3.3121,3.3124,3.3126,0,3.2514,3.2565,3.2692,3.2736,3.2762,3.2821,3.2879,3.2932,3.2976,3.2984,3.3024,3.3015,3.3092,3.3036,3.3142,3.3086,3.3119,3.3134,3.3139,3.3146,3.3083,3.3183,3.3355,3.3374,3.3153,3.3151,3.3149,0,3.2615,3.2716,3.2805,3.283,3.2883,3.2925,3.2949,3.299,3.3028,3.3078,3.3103,3.3162,3.3194,3.324,3.3248,3.3207,3.3354,3.3299,3.3362,3.3362,3.3394,3.3392,3.3573,3.3416,3.3416,3.3415,3.3415,0,3.2756,3.2834,3.2851,3.2906,3.2993,3.2996,3.3083,3.3103,3.314,3.3198,3.3184,3.3239,3.3246,3.3303,3.331,3.3397,3.3411,3.342,3.342,3.3421,3.342,3.3442,3.3434,3.342,3.3419,3.3418,3.3417,0,3.2884,3.2898,3.2994,3.3036,3.3049,3.3111,3.3148,3.32,3.3215,3.3289,3.3306,3.3329,3.3396,3.3408,3.3486,3.3491,3.3594,3.3586,3.3579,3.3578,3.3641,3.3635,3.3843,3.387,3.3695,3.3697,3.3698,0,3.2972,3.3032,3.3082,3.312,3.3146,3.3208,3.3246,3.3252,3.3292,3.3347,3.3393,3.3458,3.351,3.3617,3.3641,3.3701,3.3694,3.3763,3.3703,3.3702,3.3695,3.3691,3.3697,3.3774,3.3776,3.3778,3.3779,0,3.3129,3.3133,3.3189,3.3248,3.3294,3.3341,3.3385,3.3417,3.3428,3.3475,3.3543,3.3583,3.3663,3.3728,3.3788,3.3812,3.3798,3.3798,3.3816,3.3817,3.381,3.3814,3.361,3.3793,3.3792,3.3791,3.379,3.3789,3.3239,3.3292,3.3335,3.3398,3.3431,3.3473,3.3524,3.3546,3.3602,3.3668,3.3668,3.3742,3.3785,3.3864,3.3892,3.3951,3.3929,3.3955,3.3961,3.3967,3.3973,3.3801,3.3962,3.3961,3.3961,3.3961,3.396,0,3.3395,3.3421,3.3479,3.3542,3.3591,3.3573,3.3621,3.3664,3.373,3.3771,3.3823,3.3901,3.3963,3.3992,3.4054,3.4095,3.409,3.4111,3.4108,3.4114,3.3989,3.3968,3.4114,3.4114,3.4114,3.4114,3.4114,3.4114,3.3481,3.3569,3.3578,3.3682,3.3708,3.3781,3.381,3.3848,3.3881,3.3969,3.4021,3.404,3.4076,3.414,3.4197,3.4204,3.4227,3.4252,3.4255,3.4138,3.4123,3.4108,3.4087,3.4257,3.4257,3.4375,3.4376,3.4377]},{"header":{"parameterUnit":"m.s-1","parameterCategory":1,"la1":30.2991,"la2":30.254,"lo1":-89.0895,"lo2":-89.0444,"dy":0.0017,"dx":0.0017,"nx":28,"ny":28,"refTime":"2024-08-13T21:00:00:Z","depth":0,"parameterNumber":3,"parameterNumberName":"V-component_of_WINDS"},"data":[0,0,0,0,0,0,0,0,0,0,0,0,0,0,0,0,0,0,0,0,0,0,0,0,0,0,0,0,0,0,0,0,0,0,0,0,0,0,0,0,0,0,0,0,0,0,0,0,0,0,0,0,0,0,0,0,0,0,-1.3734,-1.3735,0,-1.3809,-1.381,-1.3811,-1.3816,-1.3815,-1.3814,-1.3813,-1.3891,-1.3894,-1.3896,0,0,0,0,0,0,0,0,0,0,0,0,0,-1.3597,-1.3599,-1.3734,-1.3735,-1.3736,-1.3809,-1.381,-1.3811,-1.3816,-1.3815,-1.3814,-1.3813,-1.389,-1.3893,-1.3897,0,0,0,0,0,0,0,0,0,0,0,0,0,-1.3663,-1.36,-1.3734,-1.3747,-1.3749,-1.3809,-1.381,-1.3811,-1.3816,-1.3815,-1.3813,-1.3812,-1.3889,-1.3893,-1.3897,-1.3949,0,0,-1.391,-1.3912,0,0,0,0,0,0,0,0,-1.3659,-1.3668,-1.3744,-1.3746,-1.3749,-1.3802,-1.379,-1.3858,-1.3816,-1.3791,-1.3813,-1.3812,-1.3862,-1.3869,-1.3886,-1.3953,-1.3956,-1.3911,-1.3913,-1.3915,-1.3916,0,0,0,0,0,0,0,-1.3654,-1.3664,-1.3764,-1.3745,-1.3748,-1.375,-1.3758,-1.3803,-1.3833,-1.3793,-1.3793,-1.3802,-1.3863,-1.3881,-1.3887,-1.3957,-1.3911,-1.3914,-1.3917,-1.3919,-1.4072,-1.4073,0,0,0,0,0,0,-1.3647,-1.3661,-1.3761,-1.3766,-1.37,-1.3753,-1.3762,-1.3786,-1.3832,-1.3838,-1.3803,-1.3802,-1.3875,-1.3882,-1.389,-1.3954,-1.3915,-1.3919,-1.3922,-1.407,-1.4072,-1.4074,0,0,0,0,0,0,-1.3644,-1.3656,-1.3758,-1.3714,-1.3727,-1.3757,-1.3784,-1.3788,-1.3806,-1.384,-1.3845,-1.3816,-1.3874,-1.3884,-1.3935,-1.3957,-1.3921,-1.3925,-1.4069,-1.4071,-1.4073,-1.4083,0,0,0,0,0,0,-1.364,-1.3655,-1.3674,-1.3714,-1.3729,-1.3801,-1.3785,-1.3791,-1.3814,-1.3813,-1.3854,-1.3859,-1.3874,-1.3928,-1.3939,-1.3962,-1.3928,-1.4067,-1.407,-1.4072,-1.4081,-1.4085,-1.4089,0,0,0,0,0,-1.3635,-1.3674,-1.3675,-1.3687,-1.3754,-1.3802,-1.3811,-1.3827,-1.3815,-1.3836,-1.3857,-1.3858,-1.3953,-1.3933,-1.3945,-1.3971,-1.4065,-1.4069,-1.4072,-1.4079,-1.4084,-1.4089,0,0,0,0,0,0,-1.3637,-1.368,-1.3681,-1.3734,-1.3765,-1.3803,-1.3829,-1.3832,-1.3866,-1.3864,-1.3883,-1.3892,-1.3942,-1.3961,-1.3939,-1.4024,-1.4008,-1.4014,-1.4009,-1.4015,-1.4019,-1.4013,-1.3932,0,0,0,0,0,-1.3643,-1.3678,-1.3714,-1.3758,-1.3773,-1.3798,-1.382,-1.3829,-1.3862,-1.3875,-1.39,-1.3932,-1.3969,-1.3993,-1.4029,-1.4084,-1.4093,-1.4107,-1.4111,-1.4115,-1.412,-1.4151,-1.4158,-1.4085,-1.4085,-1.4085,0,0,-1.3657,-1.3685,-1.3706,-1.3759,-1.3783,-1.382,-1.3809,-1.3848,-1.3875,-1.3881,-1.393,-1.395,-1.3986,-1.4039,-1.4064,-1.4057,-1.4142,-1.4119,-1.4121,-1.4125,-1.4155,-1.4162,-1.4168,-1.4087,-1.4087,-1.4086,0,0,-1.3701,-1.3725,-1.3764,-1.3789,-1.3827,-1.3844,-1.3853,-1.3891,-1.3905,-1.3954,-1.3959,-1.3993,-1.4056,-1.4082,-1.4104,-1.4158,-1.416,-1.417,-1.4192,-1.4222,-1.4228,-1.4233,-1.4253,-1.426,-1.4175,-1.4175,-1.4175,0,-1.3713,-1.3768,-1.3784,-1.3823,-1.3846,-1.3853,-1.3893,-1.3917,-1.3964,-1.398,-1.3972,-1.4052,-1.4077,-1.4137,-1.415,-1.4167,-1.4179,-1.4165,-1.4225,-1.4231,-1.4236,-1.4255,-1.4263,-1.4175,-1.4175,-1.4175,-1.4175,0,-1.3782,-1.382,-1.3847,-1.3892,-1.3919,-1.3958,-1.3981,-1.4006,-1.4013,-1.4031,-1.4082,-1.4113,-1.4156,-1.4171,-1.4178,-1.4232,-1.4226,-1.4222,-1.4206,-1.4244,-1.4262,-1.427,-1.4177,-1.4176,-1.4176,-1.4176,0,0,-1.3828,-1.3882,-1.3892,-1.3913,-1.3955,-1.3985,-1.4025,-1.4067,-1.4088,-1.4121,-1.4155,-1.4209,-1.4206,-1.423,-1.4241,-1.4268,-1.431,-1.426,-1.4261,-1.4268,-1.4371,-1.4375,-1.4383,-1.4312,-1.4313,-1.4314,-1.4368,0,-1.3876,-1.3947,-1.3963,-1.4025,-1.406,-1.4068,-1.4103,-1.4133,-1.4151,-1.4185,-1.4205,-1.4243,-1.4235,-1.425,-1.4276,-1.4299,-1.4331,-1.4295,-1.4345,-1.4346,-1.4335,-1.4393,-1.4396,-1.4446,-1.4376,-1.4377,-1.4378,0,-1.3942,-1.3977,-1.4041,-1.408,-1.4095,-1.4126,-1.4166,-1.4198,-1.4233,-1.4244,-1.4272,-1.428,-1.4323,-1.4306,-1.4366,-1.4341,-1.4362,-1.4377,-1.4379,-1.4384,-1.4364,-1.44,-1.4462,-1.4469,-1.4389,-1.4388,-1.4388,0,-1.397,-1.4032,-1.4079,-1.4097,-1.4143,-1.4164,-1.4185,-1.4218,-1.4242,-1.4277,-1.4293,-1.4333,-1.4355,-1.4386,-1.4405,-1.4391,-1.4464,-1.4448,-1.4475,-1.4475,-1.449,-1.4489,-1.4557,-1.4503,-1.4503,-1.4503,-1.4503,0,-1.4022,-1.4062,-1.4092,-1.4121,-1.4166,-1.4184,-1.4228,-1.4249,-1.4279,-1.4312,-1.4321,-1.4352,-1.4376,-1.4411,-1.4427,-1.4474,-1.4484,-1.4495,-1.4499,-1.4494,-1.4493,-1.4508,-1.4505,-1.4505,-1.4505,-1.4504,-1.4504,0,-1.4061,-1.4082,-1.4134,-1.4173,-1.4184,-1.4215,-1.4249,-1.4278,-1.4297,-1.4339,-1.435,-1.438,-1.4422,-1.4444,-1.4496,-1.4507,-1.456,-1.4562,-1.4548,-1.455,-1.4576,-1.4573,-1.4657,-1.4669,-1.4607,-1.4608,-1.4608,0,-1.4093,-1.4123,-1.4166,-1.4189,-1.4209,-1.4246,-1.4271,-1.4291,-1.4316,-1.4359,-1.4382,-1.4425,-1.4459,-1.4526,-1.4553,-1.4593,-1.4596,-1.4622,-1.4602,-1.4597,-1.4597,-1.4595,-1.4598,-1.4626,-1.4626,-1.4627,-1.4627,0,-1.4147,-1.4157,-1.4192,-1.4231,-1.4261,-1.4293,-1.4324,-1.4343,-1.4368,-1.4397,-1.4439,-1.4466,-1.452,-1.4562,-1.4605,-1.4626,-1.4631,-1.4633,-1.4642,-1.4638,-1.4629,-1.4634,-1.4558,-1.4631,-1.4631,-1.4631,-1.463,-1.463,-1.4184,-1.4212,-1.4246,-1.4285,-1.4311,-1.4341,-1.437,-1.4392,-1.4428,-1.4473,-1.4483,-1.4528,-1.4563,-1.4621,-1.4644,-1.468,-1.4675,-1.4687,-1.469,-1.4693,-1.4694,-1.4623,-1.4688,-1.4688,-1.4687,-1.4687,-1.4687,0,-1.4239,-1.4262,-1.4298,-1.4342,-1.4373,-1.4375,-1.441,-1.4436,-1.4476,-1.4508,-1.4542,-1.4592,-1.4633,-1.4663,-1.4705,-1.4728,-1.4732,-1.4739,-1.4737,-1.4742,-1.4696,-1.4685,-1.4735,-1.4735,-1.4735,-1.4735,-1.4735,-1.4735,-1.4272,-1.4319,-1.4333,-1.4393,-1.4416,-1.446,-1.448,-1.4508,-1.4534,-1.4588,-1.4622,-1.4642,-1.4673,-1.4718,-1.4756,-1.4764,-1.478,-1.4786,-1.4795,-1.4751,-1.4746,-1.4741,-1.473,-1.4789,-1.479,-1.4838,-1.4838,-1.4839]}]]